Regional Weather Roundup
Issued by NWS

Home | Current Version | Previous Version | Text Only | Print | Product List | Glossary On
Versions: 1 2 3 4 5 6 7 8 9 10 11 12 13 14 15 16 17 18 19 20 21 22 23 24 25 26 27 28 29 30 31 32 33 34 35 36 37 38 39 40 41 42 43 44 45 46 47 48 49 50
000
ASUS45 KPSR 021000
RWRAZ

PRELIMINARY ARIZONA REGIONAL HOURLY WEATHER ROUNDUP
NATIONAL WEATHER SERVICE PHOENIX AZ
300 AM MST TUE SEP 02 2014

NOTE: FAIR INDICATES FEW OR NO CLOUDS BELOW 12,000 FEET WITH NO
SIGNIFICANT WEATHER AND/OR OBSTRUCTIONS TO VISIBILITY.

AZZ001>003-036-021100-
NORTHWEST ARIZONA

CITY           SKY/WX    TMP DP  RH WIND       PRES   REMARKS
KINGMAN        FAIR      71  40  32 CALM      29.95R
$$

AZZ004>008-015-016-018-021100-
NORTH CENTRAL ARIZONA

CITY           SKY/WX    TMP DP  RH WIND       PRES   REMARKS
GRAND CANYON     N/A    N/A N/A N/A MISG        N/A
WILLIAMS       FAIR      54  39  58 S8        30.28S
PRESCOTT       FAIR      66  38  35 S8        30.10R
FLAGSTAFF      FAIR      49  41  74 CALM      30.25S
PAYSON         FAIR      63  39  42 CALM      30.13S
PAGE           FAIR      75  37  25 CALM      30.00R
$$

AZZ009>014-017-021100-
NORTHEAST ARIZONA

CITY           SKY/WX    TMP DP  RH WIND       PRES   REMARKS
WINSLOW        NOT AVBL
SAINT JOHNS    FAIR      60  40  47 S5        30.15R
$$

AZZ023-021100-
GREATER PHOENIX AREA

CITY           SKY/WX    TMP DP  RH WIND       PRES   REMARKS
PHOENIX        FAIR      86  48  26 E7        29.78R
LUKE AFB       NOT AVBL
DEER VALLEY    FAIR      81  43  26 NE12      29.81R
SCOTTSDALE     FAIR      83  49  30 CALM      29.82R
MESA-GATEWAY   FAIR      79  43  27 E7        29.83S
$$

AZZ027-028-021100-
SOUTHWEST MARICOPA COUNTY AND PINAL COUNTY

CITY           SKY/WX    TMP DP  RH WIND       PRES   REMARKS
CASA GRANDE    FAIR      77  37  24 CALM      29.82S
$$

AZZ503-504-507>509-021100-
SOUTHEAST ARIZONA

CITY           SKY/WX    TMP DP  RH WIND       PRES   REMARKS
TUCSON         FAIR      79  49  34 SE8       29.93F
DAVIS-MONTHAN  FAIR      76  50  40 SE6       29.92S
NOGALES        FAIR      65  54  67 E5        30.01F
SIERRA VISTA   CLEAR     73  46  38 W10       30.08F
SAFFORD        FAIR      70  39  32 SE6       29.95R
$$

AZZ020-021-025-026-031-021100-
SOUTHWEST ARIZONA

CITY           SKY/WX    TMP DP  RH WIND       PRES   REMARKS
YUMA           FAIR      88  38  17 CALM      29.71R
$$

CAZ031-033-041-043-047-048-061-021100-
SOUTHERN CALIFORNIA

CITY           SKY/WX    TMP DP  RH WIND       PRES   REMARKS
DOWNTOWN L.A.  MOCLDY    69  62  78 E5        29.84R
L.A. AIRPORT   MOCLDY    68  63  84 E5        29.84S
SAN DIEGO      CLOUDY    70  61  73 S8        29.86R
BURBANK        FAIR      68  61  78 SE7       29.85R
ONTARIO        FAIR      67  61  81 W6        29.85R
RIVERSIDE      FAIR      67  61  81 W3        29.86R
PALM SPRINGS   FAIR      82  41  23 CALM      29.73S
IMPERIAL       FAIR      82  45  27 SE3       29.68S
BLYTHE         FAIR      88  51  28 S8        29.71S
$$

NVZ020-UTZ003-021100-
SOUTHERN NEVADA-UTAH

CITY           SKY/WX    TMP DP  RH WIND       PRES   REMARKS
LAS VEGAS      NOT AVBL
SALT LAKE CITY FAIR      61  38  42 S9        30.01F
$$

NMZ009-TXZ055-021100-
NEW MEXICO-WEST TEXAS

CITY           SKY/WX    TMP DP  RH WIND       PRES   REMARKS
ALBUQUERQUE    CLEAR     69  40  34 CALM      30.09R
EL PASO        FAIR      78  39  24 S6        29.96F
$$


........................KEY........................
SKY/WX - SKY CONDITION/WEATHER
TMP    - TEMPERATURE IN FAHRENHEIT
DP     - DEW POINT IN FAHRENHEIT
RH     - RELATIVE HUMIDITY IN PERCENT
WIND   - DIRECTION AND SPEED IN MILES PER HOUR (MPH)
VRB    - VARIABLE WIND DIRECTION
PRES   - MEAN SEA LEVEL PRESSURE IN INCHES OF MERCURY
         F - FALLING PRESSURE   R - RISING PRESSURE
         S - STEADY PRESSURE
VSB    - VISIBILITY IN MILES
HX     - HEAT INDEX IN FAHRENHEIT
WCI    - WIND CHILL INDEX IN FAHRENHEIT
TC     - TEMPERATURE IN CELSIUS WHICH IS ALSO KNOWN AS
         TEMPERATURE IN CENTIGRADE
AFB    - AIR FORCE BASE
         LUKE AFB IS LUKE AIR FORCE BASE
         DAVIS-MONTHAN IS DAVIS-MONTHAN AIR FORCE BASE
NAS    - NAVAL AIR STATION
         EL CENTRO NAS IS EL CENTRO NAVAL AIR STATION
N/A    - NOT AVAILABLE



USA.gov is the U.S. government's official web portal to all federal, state and local government web resources and services.